Flag for Cameroon Weather past 2 weeks in Bamenda, Cameroon

Now
90 °F

Passing clouds.


Feels Like: 103 °F
Forecast: 49 / 91 °F
Wind: 14 mph from Southwest

Location: Douala Obs.

Current Time: Jan 30, 2015 at 3:46:45 PM

Latest Report: Jan 30, 2015 at 3:00 PM


Visibility: N/A

Pressure: 29.80 "Hg

Humidity: 67%

Dew point: 77 °F

Location of BamendaLocation

Historic Weather in Bamenda — Graph

°F

Bamenda temperature yesterday

Maximum temperature yesterday: 91 °F (at 1:00 PM)
Minimum temperature yesterday: 77 °F (at 6:00 AM)
Average temperature yesterday: 83 °F

Past Weeks' High & Low Weather Summary

 TemperatureHumidityPressure
High93 °F (Jan 20, 2:00 PM)100% (Jan 16, 5:00 AM)29.98 "Hg (Jan 16, 5:00 AM)
Low73 °F (Jan 16, 5:00 AM)33% (Jan 27, 6:00 PM)29.74 "Hg (Jan 24, 4:00 PM)
Average83 °F82%29.85 "Hg
* Reported Jan 15 2:00 PM — Jan 30 2:00 PM, Bamenda, Weather by CustomWeather, © 2014

Note: Actual official high and low records may vary slightly from our data, if they occured in-between our weather recording intervals... More about our weather records

Advertising

Bamenda weather history for previous 24 hours

 ConditionsComfort  
Time TempWeatherWind HumidityBarometerVisibility
2:00 PM
Jan 30
91 °FScattered clouds.12 mph63%29.83 "HgN/A
1:00 PM91 °FScattered clouds.9 mph59%29.86 "HgN/A
12:00 PM90 °FScattered clouds.7 mph67%29.89 "HgN/A
11:00 AM86 °FScattered clouds.5 mph75%29.92 "HgN/A
10:00 AM84 °FPartly sunny.5 mph84%29.92 "Hg5 mi
9:00 AM82 °FScattered clouds.5 mph84%29.89 "Hg5 mi
8:00 AM79 °FScattered clouds.No wind100%29.89 "Hg4 mi
7:00 AM79 °FScattered clouds.2 mph94%29.86 "Hg4 mi
6:00 AM79 °FThunderstorms. Passing clouds.2 mph94%29.83 "Hg5 mi
5:00 AM79 °FThunderstorms. Passing clouds.2 mph94%29.83 "Hg5 mi
4:00 AM79 °FThunderstorms. Passing clouds.3 mph94%29.83 "Hg5 mi
3:00 AM79 °FThunderstorms. Passing clouds.No wind94%29.83 "Hg5 mi
2:00 AM79 °FPassing clouds.No wind94%29.86 "HgN/A
1:00 AM79 °FPassing clouds.No wind94%29.86 "HgN/A
12:00 AM79 °FPassing clouds.No wind94%29.86 "HgN/A
11:00 PM
Jan 29
79 °FPassing clouds.No wind94%29.86 "HgN/A
10:00 PM81 °FPartly cloudy.No wind89%29.86 "HgN/A
9:00 PM82 °FPassing clouds.9 mph84%29.86 "HgN/A
8:00 PM82 °FPassing clouds.9 mph84%29.83 "HgN/A
7:00 PM84 °FPassing clouds.7 mph79%29.80 "HgN/A
6:00 PM86 °FPartly sunny.7 mph70%29.77 "HgN/A
5:00 PM86 °FPartly sunny.7 mph75%29.77 "HgN/A
4:00 PM90 °FPartly sunny.7 mph63%29.77 "HgN/A
3:00 PM90 °FPartly sunny.9 mph63%29.77 "HgN/A
Weather by CustomWeather, © 2014

See weather overviewHow to use our weather pages